Terug naar catalogus

LEMUR-2 SEJONG-3

ActiefWetenschapSSO
NORAD 68482·PAYLOAD·🇩🇪 Germany

Gelanceerd Mar 30, 2026 vanaf Vandenberg Space Force Base

Loading…

Volgende Passages (komende 24 uur)

TLE

VersSource: Space-Track

Epoch: Sep 14, 2026, 20:41 UTC

1 68482U 26067BU  26257.86220112  .00002178  00000-0  21279-3 0  9995
2 68482  97.7667 215.0262 0002737 344.0945  16.0188 14.93406348 25113

Volg LEMUR-2 SEJONG-3 in realtime met AllMySat

Download on the App Store